Wetbulb
57.24 57.18 57.00 56.83 56.65 56.56 56.14 56.57 56.84 56.59 56.28 55.70 55.66 55.36 55.36 55.55 55.79 56.15 56.30 56.71 57.29 57.30 57.15 57.62 58.24 58.91 61.83 60.33 58.63 68.13 73.21 73.87 70.41 68.38 64.54 61.58 59.86 59.80 57.66 59.17 60.08 58.99 60.78 63.01 65.30 64.59 63.95
56.98 56.83 56.85 56.68 56.34 55.98 55.79 55.72 55.85 55.90 55.99 55.58 55.51 55.78 56.06 56.00 56.09 56.38 56.52 56.62 56.85 56.83 56.93 57.74 58.46 58.63 59.77 54.60 62.75 65.35 66.14 66.76 65.32 65.37 63.19 61.64 59.24 60.68 59.07 58.89 59.20 61.73 61.72 62.86 65.28 64.93 64.64
57.31 57.03 56.70 56.57 56.42 56.16 55.86 55.82 55.61 55.29 55.35 55.38 55.47 55.78 55.66 55.88 55.99 56.05 56.11 56.21 56.10 56.62 57.32 59.31 59.15 61.24 58.13 57.41 62.33 64.37 67.00 66.56 65.63 63.56 60.91 61.34 61.11 59.12 60.07 58.86 61.16 63.77 60.28 63.20 64.75 65.21 64.21
57.09 57.12 56.78 56.71 56.58 56.32 55.99 55.89 55.64 55.27 55.57 55.62 55.42 55.30 55.32 55.36 55.36 55.49 55.53 55.29 55.39 56.72 59.86 60.62 60.52 62.10 56.84 62.13 63.91 61.44 66.01 65.91 66.20 65.74 61.54 61.44 61.43 59.46 58.96 61.53 60.64 61.14 61.23 58.57 63.72 64.83 64.83
55.73 56.10 55.91 55.83 55.89 56.05 55.89 55.91 55.45 55.31 55.47 55.36 55.22 54.99 55.01 54.83 54.85 54.85 54.43 54.57 55.54 58.26 60.90 59.97 62.24 62.37 56.49 62.53 59.20 61.98 63.55 62.43 63.93 64.43 63.29 60.84 60.05 57.60 59.16 57.16 57.45 59.62 56.56 57.30 60.03 64.82 63.35
55.21 55.29 55.33 55.46 55.24 54.97 55.01 55.12 55.19 55.32 55.60 55.25 54.91 54.76 54.59 54.47 54.36 53.92 53.65 54.40 59.46 59.37 61.63 64.31 63.83 59.35 59.21 57.84 60.49 61.40 63.28 63.69 60.46 59.08 57.86 57.14 56.32 55.00 56.27 56.58 52.24 55.37 55.68 58.33 57.96 61.50 62.77
55.12 54.87 55.01 55.02 55.01 54.52 54.26 54.31 54.23 54.66 55.05 54.78 54.51 54.49 54.24 54.00 53.60 53.35 55.03 59.86 58.88 59.02 61.17 57.59 58.97 56.57 57.82 61.45 63.27 60.30 62.50 61.71 60.02 57.20 53.17 55.40 52.65 52.24 56.61 57.56 57.90 58.22 57.77 57.10 58.88 61.69 61.14
54.54 54.67 54.70 54.76 54.62 54.52 54.31 54.14 53.97 54.19 54.49 54.57 54.51 54.30 53.93 53.65 53.11 52.88 55.64 56.25 53.35 53.12 50.57 56.81 57.47 59.65 59.72 61.16 57.35 58.49 63.10 58.40 56.92 53.30 54.55 53.13 50.97 56.25 58.58 58.84 57.61 57.76 56.97 56.72 58.61 61.94 60.57
54.28 54.43 54.33 54.29 54.44 54.71 54.66 54.53 54.30 54.40 54.51 54.28 53.97 53.80 53.39 52.88 52.51 57.53 56.73 54.23 56.93 56.31 50.89 54.08 56.20 55.47 58.30 59.66 56.76 57.86 60.88 58.64 55.94 53.79 53.45 51.92 53.66 56.59 57.06 57.24 56.26 57.21 56.58 57.06 57.28 60.07 60.64
53.70 54.39 54.52 53.97 54.19 54.68 54.55 54.41 54.16 54.36 54.28 53.80 53.56 53.43 52.86 51.97 52.61 55.00 56.12 57.28 57.18 56.69 48.95 52.80 53.59 55.28 56.61 57.58 55.22 60.57 61.45 58.69 57.17 53.86 54.00 53.37 56.17 55.19 55.73 55.89 56.92 55.21 58.16 57.91 57.29 57.86 54.26
53.92 54.42 54.11 54.19 54.36 54.31 54.24 54.01 53.89 53.87 53.91 53.50 53.27 53.08 52.53 51.64 53.08 53.47 55.21 56.76 56.45 56.18 44.28 54.81 54.59 59.60 56.88 54.15 55.69 56.45 61.93 59.82 55.65 55.19 54.69 52.14 52.99 54.00 54.16 55.81 57.83 55.79 59.25 57.89 57.77 57.18 55.96
53.45 53.59 54.07 53.96 53.87 54.17 54.13 53.74 53.56 53.56 53.49 53.29 52.96 52.59 52.19 54.72 55.61 55.87 56.86 56.41 55.22 48.05 44.42 51.61 54.90 53.54 53.82 53.81 54.53 56.61 57.77 60.26 59.58 56.14 55.35 53.72 56.43 55.51 55.94 57.68 58.22 59.25 58.27 58.41 57.55 56.81 52.11
53.27 53.46 53.68 53.93 53.80 54.00 53.76 53.54 53.39 53.21 53.17 52.88 52.36 51.46 51.54 54.72 51.86 56.42 56.11 53.35 46.12 44.88 54.04 51.94 52.10 53.57 53.87 51.99 52.66 54.34 53.93 54.73 53.55 50.89 50.29 51.96 52.67 54.88 56.44 54.88 58.27 57.95 56.09 51.67 50.27 50.47 50.05
53.59 53.79 53.62 54.02 53.83 53.78 53.62 53.39 53.25 53.06 52.98 52.47 51.42 50.63 54.68 55.07 56.22 55.88 54.40 48.61 42.86 50.33 51.60 54.06 53.97 53.67 51.84 53.38 52.55 53.99 53.27 52.87 55.86 54.68 51.13 48.48 46.60 52.50 55.29 54.85 55.49 56.32 55.94 51.66 47.61 48.45 50.69
52.81 52.89 53.17 53.44 53.58 53.29 53.27 53.35 53.13 52.78 52.57 51.92 50.14 54.35 53.40 55.10 56.56 56.46 50.13 43.00 46.50 50.16 53.00 52.72 52.87 51.48 51.74 53.21 52.77 53.40 53.28 52.64 55.21 56.31 51.26 49.91 49.21 54.32 54.71 55.73 56.85 55.84 53.74 57.53 53.97 55.19 52.00
52.45 52.35 52.46 52.99 52.96 52.79 52.79 52.86 53.13 52.86 52.43 51.42 50.20 51.59 52.37 55.78 56.95 54.32 46.51 42.19 48.63 52.23 51.77 51.77 49.69 52.11 50.76 52.27 51.74 51.99 52.83 54.70 53.79 56.73 57.36 53.90 49.69 53.52 53.93 55.35 56.43 56.50 58.24 52.72 54.54 49.74 48.29
52.19 52.28 52.60 52.90 52.73 52.56 52.61 52.77 52.78 52.70 51.72 50.66 50.62 47.75 54.27 57.26 56.54 50.22 42.76 44.44 47.43 50.69 51.53 49.13 49.79 51.36 52.47 52.43 52.98 52.27 52.23 54.80 55.53 55.75 57.48 55.49 52.64 52.34 54.00 52.09 51.52 53.49 53.98 55.43 55.02 53.99 49.98
51.98 52.08 52.67 52.63 52.34 52.46 52.48 52.59 52.43 52.05 50.90 49.73 49.26 44.02 54.12 54.98 46.19 47.51 44.69 46.74 47.65 48.80 51.03 49.55 50.49 50.40 51.02 52.97 52.93 52.57 52.50 54.28 56.95 56.65 54.44 56.78 53.07 49.73 51.10 54.67 55.40 54.59 54.01 55.01 52.09 52.63 53.73
51.92 51.91 52.53 52.46 52.44 52.40 52.27 52.28 51.97 51.60 50.90 49.44 46.34 47.05 52.96 51.38 40.17 42.68 46.88 46.41 48.22 47.98 48.07 48.01 48.09 50.15 51.89 51.39 51.26 53.08 53.73 56.85 56.28 56.15 55.20 57.18 52.77 48.95 49.84 52.59 54.44 52.12 53.86 54.63 55.54 55.89 53.60
51.59 51.68 52.28 52.38 52.52 52.27 52.34 52.25 51.80 51.75 51.63 49.82 46.31 42.49 47.57 48.96 48.07 44.65 44.94 46.45 45.77 49.45 48.52 49.42 48.73 50.03 49.82 49.63 52.94 52.32 52.76 55.17 54.70 56.07 61.56 59.87 54.42 51.71 48.26 51.17 52.95 51.05 51.77 53.45 53.68 51.92 52.26
51.43 51.55 51.74 51.90 51.80 51.69 51.73 52.06 51.75 51.86 51.64 49.56 47.02 44.12 46.10 42.21 45.10 45.47 45.41 44.72 43.42 44.37 48.61 49.58 48.81 48.01 48.02 47.69 49.65 50.11 52.98 53.79 53.38 59.22 56.58 56.79 52.89 53.67 52.95 53.34 53.49 52.66 52.05 52.20 51.65 52.97 51.57
51.30 51.19 51.07 51.09 50.90 50.94 51.61 51.88 51.83 51.57 51.35 47.76 43.32 42.19 44.83 44.37 44.90 43.28 42.41 41.87 42.38 44.11 45.87 46.38 47.05 49.44 49.30 47.92 49.67 49.24 51.86 53.11 52.39 54.50 54.34 56.59 53.43 54.43 52.15 53.21 53.18 52.24 53.13 53.14 52.85 52.88 53.27
50.92 50.79 50.85 50.94 50.98 50.96 50.71 51.00 51.48 51.26 49.59 47.65 49.48 47.78 44.53 41.92 42.75 42.03 42.18 42.53 42.38 45.58 46.15 48.02 47.33 47.82 47.82 49.55 51.77 52.50 53.30 54.30 55.00 54.66 53.73 54.39 53.76 53.31 50.28 53.36 53.35 50.27 53.47 53.49 53.91 54.55 54.11
50.85 51.04 51.18 51.19 51.18 51.19 51.02 50.77 51.00 51.04 49.62 50.74 49.17 48.04 41.92 38.10 41.12 41.10 42.08 42.06 42.17 43.70 42.90 45.92 46.94 46.20 50.92 53.39 52.98 53.48 52.83 53.51 53.98 54.88 56.33 54.61 55.30 53.78 50.82 53.06 46.48 54.07 57.58 56.62 54.99 55.81 56.93
50.78 50.99 51.16 51.21 51.29 51.27 51.31 51.10 50.98 50.93 50.94 49.57 52.49 47.64 42.98 37.89 40.44 41.20 41.56 41.47 43.57 44.61 43.08 43.21 46.08 49.44 51.78 49.89 47.38 46.93 47.84 49.22 50.58 52.98 54.44 55.78 54.29 51.26 49.20 49.32 52.45 53.76 55.07 55.19 54.62 55.01 58.07
51.12 51.27 50.70 50.87 51.02 51.40 51.34 51.14 50.93 51.14 50.39 49.93 51.38 52.78 47.53 39.01 39.13 42.36 40.66 42.08 40.37 42.04 43.02 44.95 48.05 50.72 50.54 47.32 46.10 42.03 41.97 46.03 45.99 48.68 53.35 53.57 55.23 51.64 51.16 47.97 46.75 54.16 57.05 58.47 58.27 52.45 58.47
51.23 51.07 50.75 50.96 51.56 51.46 51.40 50.80 50.79 50.91 50.25 49.62 48.42 52.75 47.55 40.11 43.68 43.98 40.51 39.64 44.29 43.01 41.80 44.19 45.82 46.10 49.66 45.21 42.67 42.40 42.84 48.81 44.82 45.54 47.67 48.42 49.85 48.06 49.17 48.72 51.60 57.10 58.30 59.43 52.39 54.42 60.12
51.35 51.35 51.04 51.39 51.22 51.11 50.49 50.53 50.18 50.86 50.68 50.27 48.42 52.23 48.25 42.66 44.48 45.65 45.82 42.75 42.64 42.68 38.88 43.84 44.21 44.99 44.29 42.40 43.17 44.16 44.76 47.32 47.52 50.27 50.44 48.60 47.61 47.30 49.18 47.51 46.26 57.60 57.28 54.77 61.00 62.73 62.05
51.61 51.80 51.47 51.08 50.75 50.57 50.12 50.38 49.94 49.74 49.94 49.97 47.13 51.31 53.05 45.36 44.39 48.37 48.84 49.53 47.90 47.20 43.06 44.99 42.78 44.03 46.16 44.04 45.54 47.39 45.70 48.41 48.83 45.04 53.27 49.49 52.42 50.49 50.82 51.01 58.13 59.46 59.59 63.56 64.03 66.35 66.14
MSLP
1024.70 1024.35 1024.03 1023.70 1023.36 1022.98 1022.53 1022.08 1021.59 1021.07 1020.59 1020.06 1019.45 1018.86 1018.26 1017.56 1017.00 1016.39 1015.87 1015.19 1014.45 1013.81 1013.25 1012.82 1012.55 1012.25 1011.24 1008.21 1004.88 1004.99 1005.68 1006.32 1006.42 1006.09 1004.59 1003.69 1002.99 1002.13 1000.94 999.85 1000.01 999.61 999.42 999.97 1000.38 1001.06 1001.81
1024.95 1024.59 1024.23 1023.88 1023.51 1023.13 1022.70 1022.24 1021.78 1021.31 1020.77 1020.20 1019.64 1019.02 1018.30 1017.60 1016.82 1016.06 1015.45 1014.87 1014.17 1013.41 1012.77 1012.37 1012.19 1012.26 1010.29 1006.21 1003.69 1003.89 1004.52 1005.55 1005.02 1005.21 1004.05 1003.29 1002.41 1001.71 1000.77 1000.16 999.82 999.57 999.75 999.93 1000.48 1001.31 1001.99
1025.11 1024.77 1024.43 1024.06 1023.67 1023.27 1022.85 1022.36 1021.84 1021.33 1020.85 1020.30 1019.65 1018.98 1018.33 1017.53 1016.66 1015.84 1014.95 1014.36 1013.69 1012.92 1012.19 1011.77 1011.78 1011.31 1008.03 1004.74 1003.51 1003.73 1003.91 1004.19 1004.24 1004.25 1003.46 1002.94 1002.36 1001.69 1000.84 1000.15 1000.03 999.77 999.49 999.98 1000.44 1001.21 1001.72
1025.23 1024.87 1024.54 1024.14 1023.72 1023.34 1022.95 1022.51 1022.04 1021.48 1020.81 1020.18 1019.54 1018.88 1018.13 1017.34 1016.43 1015.44 1014.55 1013.71 1013.07 1012.39 1011.69 1011.29 1011.39 1010.15 1005.99 1003.02 1003.05 1003.71 1003.43 1003.31 1003.57 1003.65 1003.33 1002.77 1002.48 1001.95 1001.09 1000.11 999.97 999.33 998.93 998.97 1000.13 1000.86 1001.33
1025.44 1025.01 1024.61 1024.22 1023.82 1023.39 1022.97 1022.53 1022.05 1021.55 1021.02 1020.31 1019.50 1018.68 1017.90 1017.01 1016.10 1015.04 1013.97 1012.99 1012.32 1011.80 1011.37 1011.20 1010.56 1008.29 1004.15 1003.65 1003.28 1002.89 1002.95 1002.60 1002.96 1003.23 1003.28 1002.89 1002.48 1001.94 1001.06 1000.22 999.25 998.87 997.67 998.45 999.68 1000.33 1000.73
1025.63 1025.25 1024.82 1024.36 1023.91 1023.47 1023.03 1022.51 1022.00 1021.48 1020.97 1020.36 1019.59 1018.63 1017.71 1016.65 1015.62 1014.55 1013.37 1011.95 1011.37 1011.52 1011.05 1009.99 1008.39 1006.67 1003.29 1001.95 1001.60 1001.84 1002.25 1002.21 1002.47 1002.56 1002.89 1002.70 1002.31 1001.23 1000.34 999.41 997.58 997.28 997.12 998.24 998.86 999.79 1000.29
1025.79 1025.41 1025.02 1024.59 1024.09 1023.65 1023.18 1022.65 1022.08 1021.43 1020.80 1020.18 1019.53 1018.68 1017.61 1016.28 1015.19 1013.99 1012.94 1009.80 1010.50 1009.82 1008.15 1005.26 1003.44 1002.56 1001.35 1001.01 1001.70 1001.35 1001.79 1001.89 1002.03 1002.01 1001.52 1001.80 1001.07 999.53 998.72 998.43 997.09 996.47 997.04 997.27 997.31 998.64 999.60
1025.82 1025.41 1025.03 1024.63 1024.17 1023.73 1023.25 1022.76 1022.18 1021.53 1020.88 1020.13 1019.26 1018.47 1017.60 1016.22 1014.81 1013.51 1012.86 1009.33 1009.69 1009.75 1006.75 1004.05 1002.99 1001.79 1001.06 1000.62 1000.87 1000.99 1001.43 1001.29 1001.24 1000.78 1000.81 1000.69 999.27 998.82 998.53 997.92 997.06 996.61 996.27 996.33 996.89 998.06 998.99
1025.89 1025.47 1025.05 1024.60 1024.11 1023.63 1023.17 1022.71 1022.14 1021.50 1020.89 1020.24 1019.44 1018.42 1017.39 1015.99 1014.37 1012.41 1010.74 1009.93 1009.60 1008.99 1006.42 1001.91 1000.61 1000.39 1000.45 1000.83 999.95 999.88 1000.69 1000.44 1000.14 1000.04 999.53 998.56 998.47 998.60 998.10 997.49 997.10 996.62 996.51 996.10 996.47 997.69 998.49
1025.88 1025.46 1025.03 1024.55 1024.05 1023.57 1023.09 1022.58 1022.00 1021.36 1020.76 1020.15 1019.48 1018.65 1017.57 1016.11 1014.11 1011.81 1009.67 1009.81 1009.34 1008.98 1005.30 999.64 998.69 998.71 999.23 999.99 999.59 999.01 999.99 1000.02 999.36 999.02 998.82 998.32 997.93 997.77 997.35 996.99 996.96 996.28 996.78 996.38 996.41 997.35 997.25
1025.83 1025.41 1024.98 1024.53 1024.03 1023.52 1022.95 1022.33 1021.75 1021.17 1020.59 1019.91 1019.25 1018.53 1017.79 1017.26 1015.21 1011.59 1010.41 1010.13 1009.53 1008.49 1002.83 997.73 997.63 997.64 997.92 998.31 997.21 998.45 998.97 999.43 998.64 998.47 998.44 997.39 997.37 996.83 996.70 996.44 996.55 996.41 996.19 996.46 996.46 996.69 997.11
1025.75 1025.31 1024.86 1024.43 1023.97 1023.49 1022.94 1022.29 1021.61 1021.00 1020.37 1019.61 1018.93 1018.17 1017.68 1014.22 1013.43 1011.63 1010.95 1010.33 1009.14 1006.27 999.74 996.77 997.05 997.41 997.19 997.56 996.99 997.00 998.16 999.02 998.58 998.08 997.89 997.16 997.18 996.63 996.20 996.32 996.53 996.73 996.19 996.13 996.91 996.49 996.30
1025.69 1025.25 1024.80 1024.35 1023.89 1023.39 1022.87 1022.25 1021.56 1020.79 1020.08 1019.24 1018.39 1017.49 1017.21 1015.71 1011.91 1011.33 1011.31 1009.76 1006.74 1001.96 997.41 995.59 995.87 996.15 996.20 996.37 996.45 996.25 997.20 997.58 997.21 997.21 996.86 996.94 996.20 996.53 996.33 996.21 996.29 996.21 995.98 996.11 996.39 995.99 995.71
1025.53 1025.10 1024.66 1024.23 1023.81 1023.33 1022.82 1022.24 1021.53 1020.79 1019.97 1018.99 1017.92 1016.31 1014.21 1013.26 1012.26 1011.93 1011.01 1008.69 1003.73 998.64 996.73 995.36 994.80 995.02 995.14 995.01 995.57 995.61 996.31 996.43 996.78 996.37 995.55 995.81 995.87 995.79 995.95 995.67 995.32 995.31 995.48 995.33 995.38 995.47 995.34
1025.44 1024.95 1024.49 1024.05 1023.64 1023.23 1022.72 1022.13 1021.48 1020.82 1019.98 1018.91 1017.58 1014.01 1011.84 1010.98 1011.85 1011.74 1010.05 1006.08 1000.98 998.94 996.63 995.34 995.07 994.29 994.30 994.06 994.62 994.97 995.23 995.18 995.31 995.32 995.12 994.43 994.57 995.05 995.52 995.62 995.21 994.95 994.91 995.59 995.15 994.79 994.41
1025.37 1024.89 1024.45 1023.97 1023.49 1023.08 1022.59 1021.99 1021.37 1020.74 1019.98 1018.99 1017.41 1014.29 1011.03 1010.63 1011.30 1010.90 1008.65 1004.33 1001.05 998.76 997.91 997.05 995.23 994.45 993.49 993.38 993.72 993.72 993.94 994.05 994.21 994.66 994.64 993.75 993.56 993.81 994.66 995.41 994.74 994.11 995.46 995.50 994.85 994.36 993.86
1025.27 1024.79 1024.30 1023.85 1023.41 1022.95 1022.45 1021.91 1021.33 1020.73 1019.97 1018.50 1016.77 1012.39 1010.34 1010.73 1010.86 1009.53 1006.19 1003.91 1002.23 1000.55 999.64 998.89 997.07 995.14 993.86 992.78 992.91 992.85 992.85 993.10 993.29 993.47 994.25 993.93 993.60 993.10 993.60 993.99 993.98 994.34 994.12 994.43 994.91 994.51 993.78
1025.11 1024.63 1024.15 1023.66 1023.26 1022.84 1022.40 1021.88 1021.34 1020.77 1020.09 1017.80 1015.44 1011.66 1010.09 1010.56 1009.53 1007.37 1005.23 1004.09 1002.99 1001.02 1000.20 999.77 998.85 997.46 995.69 993.92 992.69 992.42 991.88 992.00 992.27 992.83 992.85 993.72 993.44 993.14 992.50 993.44 994.18 993.85 993.79 994.04 993.60 994.01 993.61
1025.04 1024.49 1024.00 1023.51 1023.07 1022.65 1022.24 1021.81 1021.36 1020.86 1020.48 1018.75 1014.85 1011.75 1009.98 1010.29 1008.07 1006.05 1004.63 1003.58 1002.75 1002.07 1001.41 1000.81 999.47 998.69 997.40 995.95 994.41 993.09 992.31 991.86 992.22 992.19 992.31 993.38 993.48 992.94 992.74 992.67 993.19 993.35 993.23 993.45 993.82 993.67 992.91
1024.81 1024.35 1023.86 1023.38 1022.87 1022.43 1022.02 1021.60 1021.25 1020.85 1020.49 1019.79 1015.61 1011.14 1008.87 1009.01 1008.23 1006.79 1005.27 1003.76 1003.41 1003.75 1003.01 1002.13 1000.71 999.51 998.42 997.25 995.95 994.76 993.83 992.57 993.46 993.13 993.52 993.00 993.21 992.71 991.53 991.75 992.27 992.84 993.08 993.11 993.10 992.67 992.64
1024.56 1024.11 1023.61 1023.16 1022.71 1022.23 1021.80 1021.37 1021.03 1020.71 1020.37 1019.72 1015.11 1011.76 1010.69 1008.95 1007.87 1007.44 1007.31 1006.52 1005.29 1004.19 1003.51 1003.03 1001.76 1000.85 999.47 998.29 997.13 996.33 995.33 993.64 994.24 994.20 994.02 993.27 992.86 992.83 992.57 991.92 991.69 991.95 992.53 992.67 992.29 992.21 991.73
1024.29 1023.81 1023.36 1022.93 1022.49 1022.02 1021.55 1021.16 1020.80 1020.43 1020.20 1019.16 1016.41 1014.25 1012.84 1011.22 1010.02 1009.51 1008.78 1007.66 1006.81 1005.71 1004.77 1004.19 1003.46 1001.53 1000.83 999.81 998.76 997.94 997.18 995.73 994.75 994.49 994.31 993.69 993.05 993.33 992.64 992.54 992.01 991.06 991.09 991.55 991.54 991.45 991.52
1024.05 1023.59 1023.11 1022.62 1022.15 1021.72 1021.27 1020.87 1020.57 1020.27 1020.14 1018.26 1017.07 1016.15 1014.91 1012.75 1010.93 1009.63 1008.29 1007.58 1007.03 1007.02 1006.53 1005.81 1005.31 1004.31 1003.11 1002.28 1001.65 1000.85 1000.08 998.47 996.59 995.01 994.28 993.69 993.43 993.52 992.60 992.75 992.25 991.25 990.12 990.26 990.69 991.16 991.18
1023.78 1023.26 1022.70 1022.13 1021.62 1021.20 1020.84 1020.53 1020.27 1020.04 1019.96 1018.77 1018.03 1017.68 1016.33 1013.48 1011.68 1009.98 1009.51 1008.78 1008.27 1008.01 1007.68 1006.51 1006.62 1006.16 1004.63 1004.55 1003.66 1001.81 1000.81 999.27 997.96 996.43 995.12 994.02 993.97 993.86 993.47 993.29 991.51 989.16 990.27 990.26 990.29 990.64 990.99
1023.24 1022.73 1022.23 1021.67 1021.08 1020.57 1020.19 1019.89 1019.69 1019.60 1019.55 1018.72 1018.38 1018.29 1017.19 1014.95 1012.99 1011.86 1010.88 1010.14 1009.54 1009.02 1008.75 1008.38 1007.39 1006.90 1006.30 1005.76 1003.93 1001.92 1000.14 999.06 997.83 997.15 996.18 995.33 995.23 994.81 993.70 992.31 991.06 990.16 989.67 989.50 989.88 990.33 990.87
1022.91 1022.36 1021.77 1021.11 1020.43 1019.93 1019.49 1019.14 1018.95 1018.93 1019.06 1018.77 1017.97 1018.19 1017.65 1016.45 1013.78 1012.97 1012.27 1011.49 1010.45 1008.77 1007.87 1007.06 1006.87 1006.86 1006.99 1005.96 1003.84 1001.62 999.35 998.25 997.83 997.23 996.87 996.52 996.47 995.42 993.93 992.04 990.02 990.19 989.75 989.95 990.18 989.46 990.45
1022.44 1021.84 1021.26 1020.52 1019.70 1019.17 1018.59 1018.39 1018.27 1018.26 1018.41 1018.50 1017.63 1017.53 1017.65 1016.41 1014.67 1013.90 1012.77 1012.40 1011.64 1010.20 1008.84 1007.79 1006.85 1006.81 1006.59 1005.39 1003.54 1001.61 999.68 998.25 997.26 996.19 996.25 996.13 995.83 994.99 994.23 992.65 991.50 990.26 989.93 990.18 990.11 990.62 990.30
1021.89 1021.38 1020.71 1019.93 1019.27 1018.61 1018.21 1017.99 1017.85 1017.69 1017.75 1017.91 1016.77 1016.70 1017.23 1015.71 1013.90 1013.27 1012.83 1012.17 1011.71 1011.17 1010.03 1008.64 1008.32 1007.17 1006.67 1005.47 1004.15 1002.12 999.97 998.21 997.44 995.84 995.05 995.02 995.11 994.47 994.59 993.46 992.15 991.51 990.91 990.55 990.50 990.41 990.51
1021.57 1020.91 1020.25 1019.56 1018.96 1018.37 1018.06 1017.63 1017.24 1017.04 1017.25 1017.53 1016.96 1016.15 1016.55 1016.68 1014.25 1013.10 1012.44 1011.80 1011.32 1011.19 1011.15 1010.34 1009.57 1009.15 1008.32 1007.90 1006.99 1004.85 1001.57 999.13 997.51 995.77 995.26 994.32 993.47 993.91 993.77 993.06 993.02 992.40 991.88 991.11 991.13 991.44 991.35
Wind_Speed
17 17 17 17 17 17 19 18 18 19 20 21 22 23 24 25 24 24 24 24 23 22 22 20 17 14 11 12 17 15 12 10 15 20 21 17 17 15 17 4 3 8 7 4 10 7 13
16 17 17 17 17 18 19 19 19 19 20 21 21 22 23 24 24 25 24 23 23 23 22 19 14 9 9 18 0 7 10 13 16 20 20 19 15 14 15 10 10 5 7 9 10 12 7
15 15 16 17 17 18 18 19 21 21 21 21 22 22 22 24 25 26 26 25 24 23 21 16 9 8 13 18 1 6 10 15 17 21 19 19 18 10 10 13 4 5 10 10 11 10 9
18 17 16 17 17 17 18 19 20 21 22 22 22 23 24 24 26 27 27 26 26 21 16 11 8 11 11 3 10 9 11 12 16 17 18 16 14 13 19 5 8 13 15 16 14 11 8
19 19 18 18 19 19 19 18 20 20 20 21 23 24 25 26 26 28 28 28 23 14 7 5 9 11 16 5 12 15 15 14 15 13 15 12 13 16 16 15 15 14 15 15 14 13 8
18 18 18 19 19 19 19 19 20 20 19 21 22 24 26 27 28 28 29 27 7 6 9 10 11 9 16 14 13 19 17 12 15 15 15 15 11 16 18 15 16 20 20 23 19 13 10
17 17 18 18 18 19 20 20 21 21 21 21 22 24 26 29 30 30 19 5 8 10 15 15 8 14 6 6 6 14 19 15 16 16 17 21 18 21 23 22 25 16 16 22 13 19 11
17 17 18 18 18 18 19 20 20 21 21 22 24 24 26 30 31 30 14 7 7 7 13 19 23 19 5 10 13 17 19 19 17 19 22 17 24 23 23 23 24 12 14 16 13 16 11
17 17 17 17 18 17 18 19 20 20 20 21 23 25 27 30 33 17 8 7 7 8 10 16 24 25 21 13 16 21 24 23 19 23 25 22 22 24 23 22 20 18 17 12 12 11 12
17 17 17 18 18 18 18 19 20 21 21 21 22 23 26 31 14 13 5 4 9 6 9 15 14 15 25 18 23 18 24 22 15 22 23 25 21 24 24 24 22 20 19 17 14 14 14
16 16 16 17 17 18 19 20 21 21 21 22 23 23 22 18 15 8 10 12 11 7 9 13 15 8 17 26 14 28 25 23 24 19 18 22 23 25 26 23 23 19 19 18 17 13 16
17 17 17 17 18 18 18 20 21 21 22 23 23 24 22 12 11 12 11 13 9 9 11 11 12 14 18 24 26 25 25 26 21 19 20 23 22 26 22 22 23 22 23 15 18 13 15
18 18 17 17 17 17 18 19 21 23 23 24 26 27 20 12 9 12 11 9 9 13 6 12 15 19 22 19 27 22 30 28 24 22 22 22 25 21 18 22 28 25 22 11 14 14 13
18 18 18 17 16 16 17 18 20 22 24 26 27 34 11 9 10 10 9 10 15 9 24 4 14 19 21 20 26 20 28 24 28 24 15 19 22 23 22 28 26 25 23 15 18 13 16
18 17 17 16 16 17 17 18 19 20 22 26 32 12 10 8 6 7 9 16 9 18 9 12 11 16 20 20 19 22 27 27 28 27 25 21 26 25 25 21 27 27 25 24 23 20 17
18 18 18 17 16 17 17 18 18 19 21 24 12 14 14 3 7 9 12 23 20 11 8 11 18 15 19 22 20 27 25 27 28 31 25 19 16 23 24 21 27 29 20 24 19 22 21
18 18 17 17 16 17 17 17 17 17 20 26 11 8 8 5 6 10 15 21 24 28 17 11 15 20 17 19 22 21 26 21 29 29 28 25 12 19 23 25 24 23 24 20 24 20 18
19 18 17 17 16 16 16 16 15 15 17 19 9 10 8 5 11 10 16 22 20 24 18 20 17 17 19 18 18 24 22 20 16 28 32 26 14 18 24 22 23 26 28 27 15 23 19
19 18 17 17 16 16 16 15 14 13 12 10 8 11 9 6 9 14 18 21 19 16 16 20 23 23 17 18 18 16 18 19 6 20 28 22 21 16 22 21 24 27 25 27 25 21 20
18 18 17 17 16 14 14 14 13 13 10 9 10 8 8 9 12 14 16 11 8 12 17 22 22 21 22 22 19 14 19 11 3 13 6 22 21 25 18 20 21 26 27 28 26 21 20
18 19 18 16 17 16 15 14 13 12 10 9 9 7 8 9 1 5 10 11 14 14 12 18 15 23 22 21 20 19 18 14 7 11 12 17 24 24 26 25 23 24 25 26 30 28 25
19 18 18 16 16 16 16 15 12 11 9 10 11 7 8 12 13 11 12 13 18 18 15 11 16 9 15 21 19 17 21 21 10 18 18 21 19 22 25 24 26 22 27 25 29 30 27
19 19 19 18 17 17 17 15 11 10 5 6 5 11 9 10 13 11 11 11 13 7 4 15 10 10 11 8 18 18 18 20 17 11 19 22 17 18 21 22 22 26 28 25 26 26 21
19 20 20 20 20 19 17 16 13 9 8 7 7 7 5 10 11 12 14 6 13 10 11 19 1 11 18 19 20 19 18 18 14 15 13 20 17 13 15 20 28 17 23 26 23 21 21
20 20 22 22 21 19 18 17 15 12 8 10 5 4 3 9 9 12 11 12 14 11 16 20 18 17 14 14 12 12 14 17 20 19 14 8 9 13 17 20 17 23 4 27 26 27 23
20 21 22 23 23 21 19 17 17 14 9 10 7 6 5 4 9 9 11 12 12 12 11 11 14 9 9 12 12 19 19 19 22 19 19 17 12 13 15 23 31 16 20 9 12 15 23
21 22 23 24 23 22 19 15 15 15 11 9 7 7 5 5 11 14 12 9 13 13 10 13 7 5 15 12 13 17 20 21 25 30 24 19 18 19 15 16 19 12 13 14 14 8 15
20 22 23 23 20 19 12 11 11 14 13 9 8 8 7 8 13 14 16 14 10 10 12 7 10 13 10 13 13 13 15 19 21 25 26 26 20 18 17 21 23 9 12 19 10 12 14
21 21 21 19 19 11 11 14 9 7 13 12 7 6 7 5 12 17 15 19 18 19 10 17 12 9 3 5 6 10 12 13 19 20 24 22 23 17 18 16 8 11 21 10 6 6 10
Wind_Direction
10 9 7 7 6 4 3 360 357 354 352 350 347 344 341 338 335 331 328 323 319 315 312 308 304 307 286 236 249 122 132 156 182 211 220 217 225 233 258 296 252 234 91 150 123 107 86
8 6 4 3 1 0 359 358 356 353 350 347 343 339 336 334 331 327 323 320 316 311 307 300 291 292 243 258 208 142 198 170 192 204 216 221 228 239 288 294 279 82 198 140 141 114 149
1 1 360 358 357 356 354 353 351 349 347 343 339 337 334 331 327 324 321 319 314 309 303 294 266 241 260 251 63 173 204 192 204 206 215 220 236 261 222 263 212 185 164 154 146 157 149
3 1 358 354 351 351 351 349 349 346 343 340 336 334 332 329 325 321 319 315 310 303 295 286 230 230 267 301 242 198 207 187 201 205 228 229 237 260 267 313 226 220 177 181 153 170 127
1 358 357 356 355 354 348 344 343 341 340 337 334 332 330 326 323 320 317 309 302 285 270 215 210 236 258 127 215 214 210 200 195 206 216 240 229 237 232 236 222 215 208 122 158 192 147
1 358 356 354 354 352 350 346 342 338 337 336 334 331 329 325 322 320 318 296 309 240 219 216 267 248 237 220 200 198 194 193 186 179 188 210 214 223 233 214 224 192 231 137 198 174 180
357 356 352 350 350 350 349 346 343 341 338 336 333 331 329 323 322 318 321 232 208 193 222 241 208 234 156 158 133 202 185 185 193 188 194 198 205 211 208 218 240 201 154 252 163 155 196
352 351 349 347 346 345 343 342 341 340 338 335 332 330 328 322 319 313 289 296 33 343 292 251 247 246 240 186 191 190 183 190 197 199 206 183 214 214 224 220 240 257 259 215 155 143 206
349 348 347 347 345 342 339 338 337 335 335 333 331 329 327 323 317 293 321 31 329 322 261 262 224 218 215 204 222 187 193 205 195 204 203 211 210 221 214 224 233 242 240 235 181 161 203
347 344 343 342 341 339 337 336 335 334 332 331 330 328 326 327 289 336 276 10 321 334 270 233 206 217 211 202 226 208 197 207 206 215 217 226 218 206 224 225 217 231 228 251 237 162 214
342 338 337 337 337 337 336 335 333 333 330 329 328 325 324 317 307 292 9 318 318 257 271 110 147 137 190 196 170 208 183 211 221 211 217 214 221 225 219 213 221 232 222 226 256 188 254
338 336 336 334 333 332 331 330 330 330 329 327 325 320 326 296 239 261 306 312 270 230 239 170 147 189 177 198 230 179 200 213 224 225 224 236 213 231 219 216 224 222 243 202 235 245 222
336 334 332 331 332 331 329 327 327 328 328 324 321 311 306 287 276 342 311 268 224 241 110 172 175 181 193 189 213 176 193 199 208 215 214 213 232 221 217 222 219 217 232 218 219 223 242
333 331 329 327 328 328 326 324 324 326 326 322 319 308 266 241 279 297 276 228 238 241 233 54 202 185 203 191 210 194 189 203 211 212 205 206 215 203 215 228 219 216 223 227 214 226 232
335 334 332 329 326 325 324 323 322 324 324 319 312 302 276 229 226 265 241 220 217 244 278 228 208 215 207 204 195 190 214 209 205 214 225 199 223 190 217 216 229 210 221 235 246 222 243
335 333 332 332 327 326 324 322 322 324 323 316 312 294 258 76 250 235 233 236 228 282 343 303 257 216 216 206 199 200 202 210 216 211 222 242 221 214 197 212 228 233 204 228 239 245 255
333 333 331 328 326 326 326 323 323 322 321 311 277 275 102 164 223 229 233 232 245 267 291 263 273 262 241 219 208 221 211 217 209 210 217 236 234 207 190 207 209 221 224 217 240 236 249
333 331 329 327 325 324 325 327 324 323 327 299 294 266 105 272 243 229 238 237 259 263 270 254 263 279 288 270 253 211 224 223 214 213 206 218 228 238 200 202 223 223 219 233 233 228 250
337 334 329 326 326 325 321 321 323 323 329 317 278 289 279 234 252 231 248 237 253 269 253 258 253 255 268 275 270 253 249 219 256 207 222 197 227 223 248 193 208 224 226 227 231 247 241
333 329 328 330 325 325 324 325 322 319 314 297 284 291 193 203 257 292 294 285 272 261 255 266 276 266 252 244 261 258 246 219 179 248 356 202 219 230 220 223 200 217 222 232 229 233 233
332 330 328 327 333 329 324 323 324 315 308 289 257 276 19 298 301 304 317 297 282 263 243 261 265 252 259 243 241 238 257 256 192 243 265 232 224 232 233 256 222 200 219 231 234 235 240
331 329 329 326 326 325 322 320 329 311 308 267 287 330 346 293 289 269 256 254 250 249 266 260 243 295 251 255 251 240 247 251 235 220 223 229 225 234 240 234 251 253 218 219 233 232 233
326 325 321 317 313 310 312 317 319 317 279 294 318 313 312 292 270 254 261 266 250 14 260 268 350 329 267 316 333 323 313 306 301 287 213 230 218 222 235 229 238 242 238 225 220 236 228
322 318 317 314 309 304 298 298 302 296 256 280 288 310 285 275 292 311 335 293 289 304 288 293 341 289 278 342 308 274 251 262 267 269 268 222 220 224 229 222 226 247 234 237 241 234 232
319 319 318 317 316 307 296 289 281 280 268 271 266 280 292 279 292 291 302 310 297 253 240 254 269 265 298 301 290 254 240 241 233 240 239 233 207 220 228 230 238 240 236 221 225 239 243
319 317 319 316 314 314 302 284 278 266 256 268 255 249 271 275 254 326 294 297 281 288 274 252 235 245 291 267 249 239 222 219 218 217 229 231 219 258 215 232 229 226 225 233 259 249 226
318 317 317 315 313 313 311 293 289 275 249 250 267 247 252 253 260 267 265 281 296 294 298 288 285 254 241 244 242 233 233 239 223 221 213 219 222 223 230 242 246 258 248 234 224 253 234
315 318 318 321 323 320 323 308 272 262 256 236 250 210 219 257 275 263 263 272 275 288 279 9 287 210 259 240 240 243 243 227 237 232 213 221 215 224 226 233 237 255 260 258 298 220 268
317 318 327 331 330 334 326 326 312 289 229 228 248 246 208 235 282 308 283 275 267 269 254 291 290 315 6 312 353 301 271 269 236 224 228 227 221 220 232 225 261 250 253 285 266 346 304